Regional Weather Roundup
Issued by NWS

Home | Current Version | Previous Version | Text Only | Print | Product List | Glossary On
Versions: 1 2 3 4 5 6 7 8 9 10 11 12 13 14 15 16 17 18 19 20 21 22 23 24 25 26 27 28 29 30 31 32 33 34 35 36 37 38 39 40 41 42 43 44 45 46 47 48 49 50
000
ASUS44 KFWD 301015
RWRTX
NORTH TEXAS HOURLY WEATHER ROUNDUP
NATIONAL WEATHER SERVICE FORT WORTH TX
500 AM CDT SUN AUG 30 2015

NOTE: "FAIR" INDICATES FEW OR NO CLOUDS BELOW 12,000 FEET WITH NO
SIGNIFICANT WEATHER AND/OR OBSTRUCTIONS TO VISIBILITY.

TXZ118-119-301100-
DALLAS/FORT WORTH METROPLEX

CITY           SKY/WX    TMP DP  RH WIND       PRES   REMARKS
DFW AIRPORT    CLOUDY    77  66  68 SW7       29.96R
DALLAS LOVE    MOCLDY    80  65  59 SW5       29.96R
FTW MEACHAM    CLOUDY    77  66  68 S6        29.97R
DAL-EXECUTIVE  MOCLDY    77  62  59 CALM      29.97R
FTW-ALLIANCE   MOCLDY    74  64  71 W3        29.97R
FTW-NAS-JRB    CLOUDY    79  65  62 S5        29.97R
FTW-SPINKS     MOCLDY    74  69  83 CALM      29.98S
ARLINGTON      MOCLDY    73  66  78 CALM      29.97R
GRAND PRAIRIE  PTCLDY    77  66  67 CALM      29.98S
ADDISON        PTCLDY    80  66  63 SW5       29.98R
MESQUITE       MOCLDY    73  67  82 S7        29.97R
LANCASTER      CLEAR     73  63  69 CALM      29.97S
$$

TXZ091>094-102>105-117-120-121-131>134-301100-
NORTH CENTRAL TEXAS

CITY           SKY/WX    TMP DP  RH WIND       PRES   REMARKS
SHRMAN/DENISON PTCLDY    74  65  75 S6        29.96R
GAINESVILLE    PTCLDY    71  59  66 S3        29.98R
BOWIE          MOCLDY    71  57  62 S3        29.97S
BRIDGEPORT     MOCLDY    71  64  79 SW3       29.99S
DECATUR        MOCLDY    73  60  61 SW7       29.98R
DENTON         PTCLDY    75  61  61 S9        29.95S
MCKINNEY       PTCLDY    75  66  73 S8        29.95S
GREENVILLE     CLEAR     73  66  78 S6        29.97R
ROCKWALL       MOCLDY    75  67  76 S6        29.96R
TERRELL        CLEAR     74  67  78 S7        29.98R
WAXAHACHIE     PTCLDY    74  65  73 S3        29.99R
CLEBURNE         N/A     73  68  83 SW3       30.00R
GRANBURY       CLOUDY    79  64  60 SE5       29.98F
$$

TXZ083>090-098>101-113>116-127>130-139>142-154-155-301100-
WESTERN NORTH TEXAS

CITY           SKY/WX    TMP DP  RH WIND       PRES   REMARKS
WICHITA FALLS  PTCLDY    73  54  51 W7        29.95S
WF-KICKAPOO    PTCLDY    74  57  54 W5        29.96F
VERNON         PTCLDY    70  58  67 NW5       29.99S
ABILENE        CLOUDY    69  64  84 CALM      30.05R
ABILENE-DYESS  CLOUDY    68  64  86 E1        30.03R
BRECKENRIDGE   CLOUDY    71  59  65 SW3       30.02R
GRAHAM         CLOUDY    70  60  71 CALM      29.98S
MINERAL WELLS  CLOUDY    72  66  81 NE5       29.97R
STEPHENVILLE   CLOUDY    73  65  75 S3        30.02F
COMANCHE       LGT RAIN  73  66  79 S5        30.03F
BROWNWOOD      CLOUDY    73  63  68 CALM      30.03R
COLEMAN        CLOUDY    73  63  71 SW8       30.04S
BRADY          LGT RAIN  73  63  68 E6        30.03S
$$

TXZ143>147-156>162-174-175-301100-
CENTRAL TEXAS

CITY           SKY/WX    TMP DP  RH WIND       PRES   REMARKS
WACO           CLOUDY    80  64  58 S9        29.98S
WACO-MCGREGOR  CLOUDY    79  66  64 S12       29.99S
HILLSBORO      MOCLDY    77  62  59 S7        29.98S
CORSICANA      CLOUDY    77  65  66 S9        29.99R
MEXIA          CLOUDY    75  65  71 SE12      29.99R
HEARNE         CLOUDY    73  67  80 CALM      30.01S
CAMERON        CLOUDY    76  66  71 CALM      30.00S
TEMPLE         CLOUDY    75  63  64 S6        30.02R
KILLEEN        CLOUDY    77  65  67 S3        30.01R
KILLEEN-SKYLRK CLOUDY    75  64  69 S3        29.99F
FORT HOOD      LGT RAIN  75  68  78 S3        30.00S
GATESVILLE     CLOUDY    73  68  83 S9        30.02S
HAMILTON       CLOUDY    75  65  70 S6        30.03S
$$

TXZ095>097-106>112-122>126-135>138-148>153-164>167-301100-
EAST TEXAS

CITY           SKY/WX    TMP DP  RH WIND       PRES   REMARKS
PARIS          CLEAR     73  63  68 S6        29.95S
SULPHUR SPRNGS CLEAR     77  66  70 S12       29.98S
MOUNT PLEASANT CLEAR     75  64  67 S5        29.99S
GILMER         CLEAR     74  64  70 S5        29.98S
MINEOLA        PTCLDY    77  66  69 S6        29.99R
TYLER          PTCLDY    77  64  64 S8        29.99R
LONGVIEW       PTCLDY    74  65  73 S8        29.97S
MARSHALL       CLEAR     73  70  90 CALM      30.01R
ATHENS         MOCLDY    73  64  73 CALM      29.98R
JACKSONVILLE   MOCLDY    75  63  66 S7        30.03R
HENDERSON      MOCLDY    71  66  84 CALM      30.00S
CENTER         FAIR      76  65  69 CALM      29.99S
NACOGDOCHES    CLOUDY    70  64  83 CALM      30.00S
LUFKIN         MOCLDY    70  65  84 CALM      30.00S
$$

SUPPLEMENTAL OBSERVATIONS (CENTRAL)

CITY           SKY/WX    TMP DP  RH WIND       PRES   REMARKS
LAKE TEXOMA      N/A     77  63  61 SW7         N/A
CADDO GRASSLND   N/A     75  66  73 S8          N/A
PAT MAYSE LAKE   N/A     75  66  73 SE9         N/A
GREENVILLE       N/A     75  68  78 S6          N/A
CEDAR HILL       N/A     72  61  68 CALM        N/A
MCGREGOR         N/A     77  66  69 SW6         N/A
TEMPLE           N/A     77  64  65 S3          N/A
$$

SUPPLEMENTAL OBSERVATIONS (WEST)

CITY           SKY/WX    TMP DP  RH WIND       PRES   REMARKS
MILLERS CREEK    N/A     70  54  56 SW6         N/A
POSSUM KINGDOM   N/A     72  59  64 W3          N/A
LBJ GRASSLAND    N/A     70  63  78 S3          N/A
HAMBY            N/A     66  63  88 S1          N/A
$$

SUPPLEMENTAL OBSERVATIONS (EAST)

CITY           SKY/WX    TMP DP  RH WIND       PRES   REMARKS
CLARKSVILLE      N/A     72  66  83 S3          N/A
CADDO LAKE       N/A     66  64  94 CALM        N/A
GILMER           N/A     73  63  68 SW2         N/A
HENDERSON        N/A     72  64  78 S1          N/A
LUFKIN           N/A     70  64  83 MISG        N/A
N SABINE NF      N/A     72  66  83 MISG        N/A
S SABINE NF      N/A     70  64  83 SE1         N/A
$$

SUPPLEMENTAL OBSERVATIONS ARE A COLLECTION OF AUTOMATED INSTRUMENTS
THAT ARE MAINTAINED BY A VARIETY OF FEDERAL AND STATE AGENCIES.
CERTAIN ELEMENTS...SUCH AS HUMIDITY VALUES AND SUSTAINED WIND
SPEEDS...MAY BE APPROXIMATED.




USA.gov is the U.S. government's official web portal to all federal, state and local government web resources and services.